KC4JES Saint Augustine FL US current weather conditions

sailwx.info

Wind from 296

Air temperature 11.1° C
Dewpoint 11.0° C

Last reported at 2020-Jan-25 13:01 UTC.
Time now 2020-Jan-25 13:27 UTC

Location: N 30°02' W 081°23'.
View on Google Maps.

See reports from other nearby stations

  
Tides and Currents Weather Stations Pressure Air Temp Water Temp Dewpoint Dewpoint Depression Visibility Wind Speed Wind Dir Waves Ship Positions
date/time (UTC)wind fromknots sea level pressurealtimeterstation pressurevisibilityair tempwater tempwave heightnotes
2020-Jan-25 13:07 286 11.1
2020-Jan-25 13:01 296 11.1
2020-Jan-25 12:55 206 10.6
2020-Jan-25 12:50 222 10.6
2020-Jan-25 12:45 193 10.6
2020-Jan-25 12:40 220 10.6
2020-Jan-25 12:34 202 11.1
2020-Jan-25 12:28 179 11.1
2020-Jan-25 12:22 288 11.1
2020-Jan-25 12:16 308 11.1
2020-Jan-25 12:10 308 11.1
2020-Jan-25 12:04 329 11.1
2020-Jan-25 11:58 206 11.1
2020-Jan-25 11:53 193 11.1
2020-Jan-25 11:47 213 11.1
2020-Jan-25 11:41 197 11.1
2020-Jan-25 11:35 199 11.7
2020-Jan-25 11:29 192 11.7
2020-Jan-25 11:24 182 11.7
2020-Jan-25 11:18 184 11.7
2020-Jan-25 11:13 229 11.7
2020-Jan-25 11:07 222 12.2
2020-Jan-25 11:02 216 12.2
2020-Jan-25 10:56 183 12.8
2020-Jan-25 10:51 211 12.8
2020-Jan-25 10:45 234 12.8
2020-Jan-25 10:39 242 12.8
2020-Jan-25 10:34 215 12.8
2020-Jan-25 10:28 334 13.3
2020-Jan-25 10:22 322 13.3
2020-Jan-25 10:16 221 13.3
2020-Jan-25 10:11 204 13.3
2020-Jan-25 10:06 288 13.3
2020-Jan-25 10:00 212 13.3
2020-Jan-25 09:55 225 0 gusting 0 13.3
2020-Jan-25 09:50 352 0 gusting 0 13.3
2020-Jan-25 09:44 356 0 gusting 0 13.3
2020-Jan-25 09:39 308 13.3
2020-Jan-25 09:33 292 13.3
2020-Jan-25 09:28 282 0 gusting 0 13.9
2020-Jan-25 09:23 102 13.9
2020-Jan-25 09:18 292 13.9
2020-Jan-25 09:12 224 13.9
2020-Jan-25 09:06 195 13.9
2020-Jan-25 09:00 138 0 gusting 0 13.9
2020-Jan-25 08:55 275 0 gusting 0 13.9
2020-Jan-25 08:49 308 13.9
2020-Jan-25 08:43 244 13.9
2020-Jan-25 08:38 356 13.9
2020-Jan-25 08:32 301 14.4
2020-Jan-25 08:26 067 14.4
2020-Jan-25 08:21 244 14.4
2020-Jan-25 08:15 307 14.4
2020-Jan-25 08:09 277 14.4
2020-Jan-25 08:04 161 14.4
2020-Jan-25 07:58 244 0 gusting 0 15.0
2020-Jan-25 07:52 300 1 gusting 1 15.0
2020-Jan-25 07:46 277 0 gusting 0 15.0
2020-Jan-25 07:41 304 15.0
2020-Jan-25 07:35 203 15.0
2020-Jan-25 07:29 283 14.4
2020-Jan-25 07:24 174 15.0
2020-Jan-25 07:18 212 15.0
2020-Jan-25 07:12 100 15.0
2020-Jan-25 07:06 214 15.0
2020-Jan-25 07:00 194 15.0
2020-Jan-25 06:54 173 15.6
2020-Jan-25 06:49 271 15.6
2020-Jan-25 06:43 239 15.6
2020-Jan-25 06:37 292 15.6
2020-Jan-25 06:31 337 16.1
2020-Jan-25 06:26 278 16.1
2020-Jan-25 06:20 296 16.1
2020-Jan-25 06:14 250 16.1
2020-Jan-25 06:08 161 16.1
2020-Jan-25 06:03 051 16.1
2020-Jan-25 05:57 204 0 gusting 0 16.7
2020-Jan-25 05:51 209 0 gusting 0 16.7
2020-Jan-25 05:46 230 0 gusting 0 16.7
2020-Jan-25 05:40 248 0 gusting 0 16.7
2020-Jan-25 05:35 129 0 gusting 0 16.7
2020-Jan-25 05:29 283 16.1
2020-Jan-25 05:23 100 16.1
2020-Jan-25 05:17 208 16.1
2020-Jan-25 05:11 195 16.1
2020-Jan-25 05:05 203 16.7
2020-Jan-25 05:00 178 0 gusting 0 16.7
2020-Jan-25 04:54 175 16.7
2020-Jan-25 04:49 180 16.7
2020-Jan-25 04:43 170 16.7
2020-Jan-25 04:38 084 16.7
2020-Jan-25 04:32 204 16.7
2020-Jan-25 04:27 197 16.7
2020-Jan-25 04:21 196 16.7
2020-Jan-25 04:15 236 16.7
2020-Jan-25 04:09 218 17.2
2020-Jan-25 04:03 189 17.2
2020-Jan-25 03:58 183 17.2
2020-Jan-25 03:52 214 17.2
2020-Jan-25 03:46 154 17.2
2020-Jan-25 03:40 127 17.2
2020-Jan-25 03:35 167 17.2
2020-Jan-25 03:30 185 17.2
2020-Jan-25 03:24 229 17.2
2020-Jan-25 03:18 207 17.2
2020-Jan-25 03:13 198 17.2
2020-Jan-25 03:07 153 17.2
2020-Jan-25 03:02 208 17.2
2020-Jan-25 02:56 181 17.2
2020-Jan-25 02:50 200 17.2
2020-Jan-25 02:44 217 17.2
2020-Jan-25 02:38 175 17.2
2020-Jan-25 02:33 187 17.2
2020-Jan-25 02:28 253 17.2
2020-Jan-25 02:22 177 17.2
2020-Jan-25 02:17 188 17.2
2020-Jan-25 02:11 184 17.2
2020-Jan-25 02:06 283 17.2
2020-Jan-25 02:00 184 17.2
2020-Jan-25 01:54 177 17.2
2020-Jan-25 01:49 227 17.2
2020-Jan-25 01:44 152 17.2
2020-Jan-25 01:38 190 17.2
2020-Jan-25 01:32 203 17.2
2020-Jan-25 01:27 180 17.2
2020-Jan-25 01:21 163 17.2
2020-Jan-25 01:16 184 17.2
2020-Jan-25 01:10 200 17.2
2020-Jan-25 01:04 177 17.2
2020-Jan-25 00:58 183 17.2
2020-Jan-25 00:52 187 17.2
2020-Jan-25 00:46 176 17.2
2020-Jan-25 00:40 184 17.2
2020-Jan-25 00:34 193 17.2
2020-Jan-25 00:28 189 17.2
2020-Jan-25 00:23 193 17.2
2020-Jan-25 00:17 209 17.2
2020-Jan-25 00:12 227 17.8
2020-Jan-25 00:06 179 17.8
2020-Jan-25 00:01 208 17.8
2020-Jan-24 23:56 249 17.8
2020-Jan-24 23:50 195 18.3
2020-Jan-24 23:44 177 18.3
2020-Jan-24 23:38 195 18.3
2020-Jan-24 23:32 192 18.3
2020-Jan-24 23:26 179 18.3
2020-Jan-24 23:21 175 18.9
2020-Jan-24 23:15 166 18.9
2020-Jan-24 23:09 190 18.9
2020-Jan-24 23:03 189 18.9
2020-Jan-24 22:57 185 18.9
2020-Jan-24 22:52 184 18.9
2020-Jan-24 22:46 184 19.4
2020-Jan-24 22:40 191 19.4
2020-Jan-24 22:35 162 19.4
2020-Jan-24 22:30 211 19.4
2020-Jan-24 22:24 190 19.4
2020-Jan-24 22:18 187 19.4
2020-Jan-24 22:13 177 19.4
2020-Jan-24 22:07 254 19.4
2020-Jan-24 22:02 199 19.4
2020-Jan-24 21:56 212 20.0
2020-Jan-24 21:51 194 20.0
2020-Jan-24 21:45 205 20.0
2020-Jan-24 21:40 225 20.6
2020-Jan-24 21:34 208 21.1
2020-Jan-24 21:28 162 21.1
2020-Jan-24 21:22 182 21.1
2020-Jan-24 21:17 169 21.1
2020-Jan-24 21:12 196 21.1
2020-Jan-24 21:06 034 21.1
2020-Jan-24 21:01 168 21.1
2020-Jan-24 20:56 139 21.1
2020-Jan-24 20:50 108 0 gusting 0 21.1
2020-Jan-24 20:44 132 0 gusting 0 21.1
2020-Jan-24 20:38 168 21.1
2020-Jan-24 20:33 161 21.1
2020-Jan-24 20:28 123 0 gusting 0 21.1
2020-Jan-24 20:22 098 21.1
2020-Jan-24 20:17 239 0 gusting 0 21.1
2020-Jan-24 20:12 187 1 gusting 1 21.1
2020-Jan-24 20:06 153 1 gusting 1 21.7
2020-Jan-24 20:00 104 1 gusting 1 21.7
2020-Jan-24 19:54 124 2 gusting 2 21.7
2020-Jan-24 19:48 104 2 gusting 2 21.7
2020-Jan-24 19:42 085 2 gusting 2 22.2
2020-Jan-24 19:37 111 2 gusting 2 22.2
2020-Jan-24 19:31 115 1 gusting 1 21.1
2020-Jan-24 19:25 137 1 gusting 1 22.2
2020-Jan-24 19:20 108 0 gusting 0 22.2
2020-Jan-24 19:15 092 0 gusting 0 22.8
2020-Jan-24 19:10 149 1 gusting 1 22.8
2020-Jan-24 19:04 120 2 gusting 2 23.3
2020-Jan-24 18:59 098 1 gusting 1 23.9
2020-Jan-24 18:53 120 1 gusting 1 23.3
2020-Jan-24 18:47 212 0 gusting 0 22.8
2020-Jan-24 18:41 133 0 gusting 0 22.2
2020-Jan-24 18:35 101 0 gusting 0 22.8
2020-Jan-24 18:29 185 1 gusting 1 22.8
2020-Jan-24 18:24 149 0 gusting 0 22.8
2020-Jan-24 18:18 145 0 gusting 0 22.8
2020-Jan-24 18:13 117 0 gusting 0 22.2
2020-Jan-24 18:07 088 0 gusting 0 22.2
2020-Jan-24 18:01 089 0 gusting 0 21.1
2020-Jan-24 17:56 290 1 gusting 1 21.7
2020-Jan-24 17:50 124 1 gusting 1 21.7
2020-Jan-24 17:45 122 2 gusting 2 22.2
2020-Jan-24 17:39 100 1 gusting 1 22.8
2020-Jan-24 17:34 198 1 gusting 1 22.8
2020-Jan-24 17:28 184 1 gusting 1 23.3
2020-Jan-24 17:22 095 1 gusting 1 22.8
2020-Jan-24 17:16 244 1 gusting 1 23.9
2020-Jan-24 17:10 138 0 gusting 0 23.9
2020-Jan-24 17:04 178 0 gusting 0 22.8
2020-Jan-24 16:58 104 1 gusting 1 22.2
2020-Jan-24 16:53 157 0 gusting 0 21.7
2020-Jan-24 16:47 174 0 gusting 0 21.7
2020-Jan-24 16:42 100 1 gusting 1 21.7
2020-Jan-24 16:36 221 0 gusting 0 22.8
2020-Jan-24 16:31 178 0 gusting 0 22.2
2020-Jan-24 16:25 246 0 gusting 0 22.8
2020-Jan-24 16:20 171 0 gusting 0 23.3
2020-Jan-24 16:14 152 0 gusting 0 22.8
2020-Jan-24 16:08 168 0 gusting 0 22.8
2020-Jan-24 16:03 093 0 gusting 0 22.8
2020-Jan-24 15:57 159 0 gusting 0 22.2
2020-Jan-24 15:52 145 0 gusting 0 21.7
2020-Jan-24 15:47 090 0 gusting 0 21.7
2020-Jan-24 15:41 107 1 gusting 1 21.7
2020-Jan-24 15:35 163 2 gusting 2 22.2
2020-Jan-24 15:29 076 1 gusting 1 22.2
2020-Jan-24 15:23 112 2 gusting 2 21.7
2020-Jan-24 15:17 164 1 gusting 1 21.7
2020-Jan-24 15:12 145 1 gusting 1 21.7
2020-Jan-24 15:06 166 1 gusting 1 21.1
2020-Jan-24 15:00 059 1 gusting 1 21.1
2020-Jan-24 14:55 146 0 gusting 0 21.1
2020-Jan-24 14:50 146 0 gusting 0 20.6
2020-Jan-24 14:44 119 0 gusting 0 20.0
2020-Jan-24 14:38 111 0 gusting 0 19.4
2020-Jan-24 14:33 196 0 gusting 0 19.4
2020-Jan-24 14:27 249 0 gusting 0 18.9
2020-Jan-24 14:21 263 0 gusting 0 18.9
2020-Jan-24 14:15 123 0 gusting 0 18.9
2020-Jan-24 14:09 163 18.3
2020-Jan-24 14:03 166 0 gusting 0 17.8
2020-Jan-24 13:57 188 0 gusting 0 17.2
2020-Jan-24 13:52 127 16.7
2020-Jan-24 13:46 168 16.1
2020-Jan-24 13:40 189 15.6
2020-Jan-24 13:34 174 15.0
2020-Jan-24 13:28 174 15.0
2020-Jan-24 13:23 177 14.4
2020-Jan-24 13:17 209 14.4
2020-Jan-24 13:11 190 14.4
2020-Jan-24 13:05 177 14.4
2020-Jan-24 13:00 175 14.4
2020-Jan-24 12:54 192 14.4
2020-Jan-24 12:48 214 14.4
2020-Jan-24 12:42 177 14.4
2020-Jan-24 12:36 174 14.4
2020-Jan-24 12:30 213 14.4
2020-Jan-24 12:24 194 14.4
2020-Jan-24 12:18 156 15.0
2020-Jan-24 12:12 176 15.0
2020-Jan-24 12:07 166 15.0
2020-Jan-24 12:02 177 15.0
2020-Jan-24 11:56 186 15.0
2020-Jan-24 11:51 183 15.0
2020-Jan-24 11:46 155 15.0
2020-Jan-24 11:40 171 15.0
2020-Jan-24 11:35 170 15.0
2020-Jan-24 11:30 115 15.0
2020-Jan-24 11:24 105 0 gusting 0 15.0
2020-Jan-24 11:19 149 0 gusting 0 15.0
2020-Jan-24 11:13 172 15.0
2020-Jan-24 11:08 165 14.4
2020-Jan-24 11:02 162 14.4
2020-Jan-24 10:57 176 14.4
2020-Jan-24 10:51 150 14.4
2020-Jan-24 10:45 263 14.4
2020-Jan-24 10:39 177 14.4
2020-Jan-24 10:34 192 15.0
2020-Jan-24 10:28 150 15.0
2020-Jan-24 10:23 178 15.0
2020-Jan-24 10:17 174 15.0
2020-Jan-24 10:11 163 15.0
2020-Jan-24 10:06 160 15.0
2020-Jan-24 10:01 181 15.0
2020-Jan-24 09:55 204 15.0
2020-Jan-24 09:49 198 15.0
2020-Jan-24 09:44 157 15.0
2020-Jan-24 09:38 160 14.4
2020-Jan-24 09:33 193 14.4
2020-Jan-24 09:27 208 14.4
2020-Jan-24 09:21 185 14.4
2020-Jan-24 09:15 192 14.4
2020-Jan-24 09:09 195 14.4
2020-Jan-24 09:03 177 14.4
2020-Jan-24 08:57 193 14.4
2020-Jan-24 08:52 181 14.4
2020-Jan-24 08:46 172 14.4
2020-Jan-24 08:40 177 14.4
2020-Jan-24 08:35 181 14.4
2020-Jan-24 08:29 186 14.4
2020-Jan-24 08:24 176 14.4
2020-Jan-24 08:19 252 14.4
2020-Jan-24 08:13 231 14.4
2020-Jan-24 08:08 223 14.4
2020-Jan-24 08:02 236 14.4
2020-Jan-24 07:57 207 14.4
2020-Jan-24 07:51 192 14.4
2020-Jan-24 07:45 176 14.4
2020-Jan-24 07:40 178 14.4
2020-Jan-24 07:35 195 13.9
2020-Jan-24 07:30 181 14.4
2020-Jan-24 07:24 209 13.9
2020-Jan-24 07:18 201 13.9
2020-Jan-24 07:12 185 13.9
2020-Jan-24 07:07 207 13.9
2020-Jan-24 07:01 191 13.9
2020-Jan-24 06:56 173 13.9
2020-Jan-24 06:50 176 13.9
2020-Jan-24 06:44 172 13.9
2020-Jan-24 06:38 176 13.9
2020-Jan-24 06:32 171 13.9
2020-Jan-24 06:27 154 13.9
2020-Jan-24 06:21 182 13.9
2020-Jan-24 06:16 182 13.9
2020-Jan-24 06:10 221 13.9
2020-Jan-24 06:04 200 13.9
2020-Jan-24 05:58 179 13.9
2020-Jan-24 05:52 193 13.9
2020-Jan-24 05:47 198 13.9
2020-Jan-24 05:41 194 13.9
2020-Jan-24 05:35 184 13.9
2020-Jan-24 05:30 194 13.9
2020-Jan-24 05:25 194 13.9
2020-Jan-24 05:19 181 13.9
2020-Jan-24 05:13 192 13.9
2020-Jan-24 05:08 206 13.9
2020-Jan-24 05:03 183 13.9
2020-Jan-24 04:57 189 13.9
2020-Jan-24 04:52 189 14.4
2020-Jan-24 04:46 167 14.4
2020-Jan-24 04:40 314 14.4
2020-Jan-24 04:34 195 14.4
2020-Jan-24 04:29 182 14.4
2020-Jan-24 04:23 191 14.4
2020-Jan-24 04:18 181 14.4
2020-Jan-24 04:13 182 14.4
2020-Jan-24 04:07 254 14.4
2020-Jan-24 04:01 248 14.4
2020-Jan-24 03:55 294 14.4
2020-Jan-24 03:49 262 14.4
2020-Jan-24 03:43 149 14.4
2020-Jan-24 03:37 109 14.4
2020-Jan-24 03:31 222 14.4
2020-Jan-24 03:26 168 15.0
2020-Jan-24 03:20 195 15.0
2020-Jan-24 03:14 190 15.0
2020-Jan-24 03:08 150 15.0
2020-Jan-24 03:03 009 15.0
2020-Jan-24 02:57 191 15.0
2020-Jan-24 02:52 303 15.0
2020-Jan-24 02:46 179 15.0
2020-Jan-24 02:41 247 15.0
2020-Jan-24 02:36 218 15.0
2020-Jan-24 02:31 194 15.0
2020-Jan-24 02:25 324 15.0
2020-Jan-24 02:19 236 15.0
2020-Jan-24 02:13 013 15.0
2020-Jan-24 02:07 161 15.0
2020-Jan-24 02:02 346 15.0
2020-Jan-24 01:56 348 15.0
2020-Jan-24 01:50 219 15.0
2020-Jan-24 01:45 201 15.0
2020-Jan-24 01:39 322 15.0
2020-Jan-24 01:33 301 15.0
2020-Jan-24 01:28 345 15.0
2020-Jan-24 01:22 217 15.0
2020-Jan-24 01:16 091 15.0
2020-Jan-24 01:10 272 15.0
2020-Jan-24 01:05 019 1 gusting 1 15.0
2020-Jan-24 00:59 336 0 gusting 0 15.0
2020-Jan-24 00:54 036 0 gusting 0 15.0
2020-Jan-24 00:48 035 0 gusting 0 15.0
2020-Jan-24 00:43 353 0 gusting 0 15.0
2020-Jan-24 00:37 021 0 gusting 0 15.0
2020-Jan-24 00:32 074 0 gusting 0 15.0
2020-Jan-24 00:26 351 0 gusting 0 15.0
2020-Jan-24 00:21 359 0 gusting 0 15.0
2020-Jan-24 00:15 038 15.0
2020-Jan-24 00:09 273 0 gusting 0 15.0
2020-Jan-24 00:03 253 0 gusting 0 15.0
2020-Jan-23 23:57 290 15.0
2020-Jan-23 23:52 341 0 gusting 0 15.0
2020-Jan-23 23:46 013 0 gusting 0 15.0
2020-Jan-23 23:41 359 15.0
2020-Jan-23 23:35 105 1 gusting 1 14.4
2020-Jan-23 23:29 358 2 gusting 2 14.4
2020-Jan-23 23:23 004 0 gusting 0 14.4
2020-Jan-23 23:18 356 0 gusting 0 14.4
2020-Jan-23 23:12 342 1 gusting 1 14.4
2020-Jan-23 23:06 274 1 gusting 1 14.4
2020-Jan-23 23:01 327 0 gusting 0 14.4
2020-Jan-23 22:55 293 0 gusting 0 14.4
2020-Jan-23 22:50 341 0 gusting 0 14.4
2020-Jan-23 22:44 324 1 gusting 1 14.4
2020-Jan-23 22:39 015 0 gusting 0 14.4
2020-Jan-23 22:33 322 1 gusting 1 14.4
2020-Jan-23 22:27 048 1 gusting 1 14.4
2020-Jan-23 22:21 354 1 gusting 1 14.4
2020-Jan-23 22:15 326 0 gusting 0 14.4
2020-Jan-23 22:10 026 1 gusting 1 14.4
2020-Jan-23 22:04 320 0 gusting 0 14.4
2020-Jan-23 21:58 020 0 gusting 0 14.4
2020-Jan-23 21:53 134 0 gusting 0 14.4
2020-Jan-23 21:47 017 1 gusting 1 14.4
2020-Jan-23 21:42 027 1 gusting 1 14.4
2020-Jan-23 21:37 062 1 gusting 1 14.4
2020-Jan-23 21:32 074 1 gusting 1 14.4
2020-Jan-23 21:26 033 0 gusting 0 14.4
2020-Jan-23 21:20 014 0 gusting 0 15.0
2020-Jan-23 21:15 15.0
2020-Jan-23 21:09 046 0 gusting 0 15.0
2020-Jan-23 21:04 025 0 gusting 0 15.0
2020-Jan-23 20:58 340 1 gusting 1 15.0
2020-Jan-23 20:52 085 2 gusting 2 15.0
2020-Jan-23 20:47 037 1 gusting 1 15.0
2020-Jan-23 20:41 023 0 gusting 0 15.0
2020-Jan-23 20:36 036 0 gusting 0 15.6
2020-Jan-23 20:31 354 1 gusting 1 15.0
2020-Jan-23 20:25 355 3 gusting 3 15.0
2020-Jan-23 20:20 047 1 gusting 1 15.6
2020-Jan-23 20:15 353 1 gusting 1 15.6
2020-Jan-23 20:10 021 2 gusting 2 15.6
2020-Jan-23 20:04 097 1 gusting 1 15.6
2020-Jan-23 19:58 062 2 gusting 2 15.6
2020-Jan-23 19:52 004 0 gusting 0 15.6
2020-Jan-23 19:47 15.6
2020-Jan-23 19:42 050 1 gusting 1 15.6
2020-Jan-23 19:36 113 2 gusting 2 15.6
2020-Jan-23 19:30 016 1 gusting 1 15.6
2020-Jan-23 19:24 129 1 gusting 1 15.6
2020-Jan-23 19:18 019 1 gusting 1 15.6
2020-Jan-23 19:12 009 1 gusting 1 15.6
2020-Jan-23 19:07 039 2 gusting 2 15.6
2020-Jan-23 19:01 024 2 gusting 2 15.6
2020-Jan-23 18:55 355 2 gusting 2 15.6
2020-Jan-23 18:49 350 1 gusting 1 16.1
2020-Jan-23 18:44 007 2 gusting 2 16.1
2020-Jan-23 18:38 357 1 gusting 1 16.1
2020-Jan-23 18:33 018 2 gusting 2 16.1
2020-Jan-23 18:28 005 2 gusting 2 16.1
2020-Jan-23 18:22 008 2 gusting 2 16.1
2020-Jan-23 18:16 293 1 gusting 1 16.7
2020-Jan-23 18:11 049 0 gusting 0 16.7
2020-Jan-23 18:05 021 1 gusting 1 16.7
2020-Jan-23 18:00 040 1 gusting 1 16.7
2020-Jan-23 17:54 029 0 gusting 0 16.7
2020-Jan-23 17:48 042 1 gusting 1 17.2
2020-Jan-23 17:43 031 2 gusting 2 17.2
2020-Jan-23 17:37 298 1 gusting 1 16.7
2020-Jan-23 17:31 331 2 gusting 2 16.7
2020-Jan-23 17:25 028 2 gusting 2 17.2
2020-Jan-23 17:20 304 2 gusting 2 17.2
2020-Jan-23 17:14 005 3 gusting 3 16.7
2020-Jan-23 17:09 002 2 gusting 2 16.7
2020-Jan-23 17:04 003 2 gusting 2 16.7
2020-Jan-23 16:58 274 1 gusting 1 16.7
2020-Jan-23 16:52 025 2 gusting 2 16.7
2020-Jan-23 16:46 350 2 gusting 2 17.2
2020-Jan-23 16:41 356 2 gusting 2 17.2
2020-Jan-23 16:35 024 1 gusting 1 17.8
2020-Jan-23 16:29 001 1 gusting 1 17.8
2020-Jan-23 16:23 010 2 gusting 2 17.2
2020-Jan-23 16:18 018 2 gusting 2 17.2
2020-Jan-23 16:13 017 1 gusting 1 17.8
2020-Jan-23 16:07 029 1 gusting 1 17.8
2020-Jan-23 16:01 334 0 gusting 0 17.8
2020-Jan-23 15:56 268 1 gusting 1 17.2
2020-Jan-23 15:50 037 1 gusting 1 17.2
2020-Jan-23 15:40 345 2 gusting 2 17.2
2020-Jan-23 15:34 332 2 gusting 2 17.2
2020-Jan-23 15:28 358 1 gusting 1 17.2
2020-Jan-23 15:23 199 1 gusting 1 17.2
2020-Jan-23 15:17 022 1 gusting 1 17.2
2020-Jan-23 15:12 009 1 gusting 1 17.2
2020-Jan-23 15:06 060 2 gusting 2 17.2
2020-Jan-23 15:01 072 1 gusting 1 17.2
2020-Jan-23 14:55 106 1 gusting 1 17.2
2020-Jan-23 14:49 029 1 gusting 1 17.2
2020-Jan-23 14:44 346 2 gusting 2 17.2
2020-Jan-23 14:38 008 1 gusting 1 16.7
2020-Jan-23 14:32 120 2 gusting 2 16.7
2020-Jan-23 14:26 035 1 gusting 1 16.7
2020-Jan-23 14:20 299 0 gusting 0 16.7
2020-Jan-23 14:15 020 1 gusting 1 16.1
2020-Jan-23 14:09 326 1 gusting 1 15.6
2020-Jan-23 14:04 010 1 gusting 1 15.6
2020-Jan-23 13:58 359 1 gusting 1 15.6
2020-Jan-23 13:53 356 1 gusting 1 15.6
2020-Jan-23 13:48 351 1 gusting 1 15.6
2020-Jan-23 13:42 017 1 gusting 1 15.0
2020-Jan-23 13:36 339 1 gusting 1 15.0
2020-Jan-23 13:30 005 1 gusting 1 15.0
2020-Jan-23 13:24 339 2 gusting 2 15.0
2020-Jan-23 13:18 031 1 gusting 1 15.0
2020-Jan-23 13:12 314 0 gusting 0 15.0
2020-Jan-23 13:06 342 1 gusting 1 15.0
2020-Jan-23 13:01 005 1 gusting 1 15.0